TimeCDT,TemperatureF,Dew PointF,Humidity,Sea Level PressureIn,VisibilityMPH,Wind Direction,Wind SpeedMPH,Gust SpeedMPH,PrecipitationIn,Events,Conditions,WindDirDegrees,DateUTC
12:53 AM,33.1,23.0,66,30.24,10.0,WNW,3.5,-,N/A,,Clear,290,2012-10-07 05:53:00
1:53 AM,32.0,23.0,69,30.24,10.0,West,4.6,-,N/A,,Clear,270,2012-10-07 06:53:00
2:53 AM,28.0,21.9,78,30.23,10.0,WSW,3.5,-,N/A,,Clear,240,2012-10-07 07:53:00
3:53 AM,27.0,21.9,81,30.22,10.0,SW,4.6,-,N/A,,Clear,220,2012-10-07 08:53:00
4:53 AM,27.0,21.0,78,30.21,10.0,SW,5.8,-,N/A,,Clear,230,2012-10-07 09:53:00
5:53 AM,25.0,21.0,85,30.20,10.0,WSW,4.6,-,N/A,,Clear,240,2012-10-07 10:53:00
6:53 AM,26.1,19.9,78,30.20,10.0,SW,4.6,-,N/A,,Clear,230,2012-10-07 11:53:00
7:53 AM,26.1,21.9,84,30.19,10.0,Calm,Calm,-,N/A,,Clear,0,2012-10-07 12:53:00
8:53 AM,30.0,23.0,75,30.19,10.0,SSW,4.6,-,N/A,,Clear,210,2012-10-07 13:53:00
9:53 AM,35.1,23.0,61,30.18,10.0,WSW,8.1,-,N/A,,Clear,240,2012-10-07 14:53:00
10:53 AM,42.1,24.1,49,30.17,10.0,SSW,11.5,-,N/A,,Clear,200,2012-10-07 15:53:00
11:53 AM,46.0,19.9,35,30.14,10.0,SW,10.4,-,N/A,,Clear,220,2012-10-07 16:53:00
12:53 PM,48.9,18.0,29,30.11,10.0,SW,11.5,19.6,N/A,,Clear,220,2012-10-07 17:53:00
1:53 PM,50.0,18.0,28,30.07,10.0,SSW,11.5,21.9,N/A,,Clear,210,2012-10-07 18:53:00
2:53 PM,53.1,17.1,24,30.04,10.0,SSW,15.0,23.0,N/A,,Clear,200,2012-10-07 19:53:00
3:53 PM,54.0,16.0,22,30.01,10.0,SSW,10.4,19.6,N/A,,Clear,210,2012-10-07 20:53:00
4:53 PM,54.0,14.0,21,29.98,10.0,SSW,9.2,-,N/A,,Clear,210,2012-10-07 21:53:00
5:53 PM,54.0,16.0,22,29.96,10.0,SW,6.9,17.3,N/A,,Clear,230,2012-10-07 22:53:00
6:53 PM,50.0,18.0,28,29.95,10.0,SW,4.6,-,N/A,,Partly Cloudy,220,2012-10-07 23:53:00
7:53 PM,45.0,19.0,36,29.95,10.0,SSE,4.6,-,N/A,,Clear,160,2012-10-08 00:53:00
8:53 PM,44.1,21.0,40,29.94,10.0,SSE,3.5,-,N/A,,Clear,160,2012-10-08 01:53:00
9:53 PM,45.0,21.9,40,29.93,10.0,South,8.1,-,N/A,,Clear,190,2012-10-08 02:53:00
10:53 PM,44.1,21.9,42,29.92,10.0,South,8.1,-,N/A,,Partly Cloudy,190,2012-10-08 03:53:00
11:53 PM,42.1,23.0,47,29.89,10.0,South,6.9,-,N/A,,Clear,180,2012-10-08 04:53:00